Find Starlink 34765

NORAD ID: 66506 Int'l Des: 2025-263 Owner: SPXS Country: US Constellation: starlink operational
LEOCIRCULAR

現在のビュー

3D地球を読み込み中...

About Starlink 34765

Starlink 34765 (NORAD 66506) is a starlink constellation satellite (v2 mini) launched Nov 15, 2025 by SPXS of US. It operates in LEO, CIRCULAR orbit with a mass of 575.00 kg.

Starlink 34765について

説明を読み込み中...

次回通過

Passes for default location (London). Set your location on the main map for personalized predictions.

高度履歴

Loading altitude history...

軌道要素

1 66506U 25263X 26194.85144904 .00008705 00000-0 32533-3 0 9997
2 66506 43.0032 358.2059 0001144 262.2093 97.8629 15.27593592 38193
Epoch: Jul 13, 2026 • Age: 13 hours

現在のステータス

高度 482.6 km
遠地点 / 近地点 N/A
速度 7.63 km/s
衛星直下点 19.72°N, 75.69°E
打ち上げ日 Nov 15, 2025
運用期間 0.6 years
タイプ internet

技術仕様

分類 Payload
質量 575.00 kg
乾燥質量 530.00 kg
総質量 575.00 kg
長さ 0.30 m
直径 4.10 m
スパン 29.00 m
形状 Box + pan
製造者 SPXS
バスタイプ Starlink V2MO
フェーズステータス In Orbit
所有者/国 SPXS/US

Most Searched